Location: �perlecques
(50.8057°N, 2.1521°E)
Time: 21:29:00
(UTC+00:00)

Terra - Pass Details

Date: 09 April 2020
Orbit: 701 x 703 km, 98.2° (Epoch: 27 May)

Event Time Altitude Azimuth Distance (km) Brightness Sun altitude
Exits shadow 20:29:32 22° 87° (E) 1,539 3.1 -16.7°
Maximum altitude 20:30:57 25° 61° (ENE) 1,414 3.2 -16.9°
Drops below altitude 10° 20:34:48 10° 7° (N) 2,185 4.8 -17.4°
Sets 20:37:23 0° 354° (N) 3,108 5.8 -17.7°
